CET,Max TemperatureF,Mean TemperatureF,Min TemperatureF,Max Dew PointF,MeanDew PointF,Min DewpointF,Max Humidity, Mean Humidity, Min Humidity, Max Sea Level PressureIn, Mean Sea Level PressureIn, Min Sea Level PressureIn, Max VisibilityMiles, Mean VisibilityMiles, Min VisibilityMiles, Max Wind SpeedMPH, Mean Wind SpeedMPH, Max Gust SpeedMPH,PrecipitationIn, CloudCover, Events, WindDirDegrees
2012-11-1,53,48,44,48,43,37,93,81,62,29.36,29.14,29.00,6,6,6,22,12,36,0.00,6,Rain-Thunderstorm,211
2012-11-2,50,46,42,46,41,37,93,84,81,29.59,29.47,29.39,6,6,2,15,11,,0.00,6,Rain,213
2012-11-3,53,47,41,48,43,39,100,84,58,29.65,29.56,29.44,6,6,1,14,8,,0.00,7,Rain,212
2012-11-4,53,47,41,48,42,37,100,83,54,29.65,29.52,29.44,6,6,1,20,8,,0.00,7,Fog-Rain,193
2012-11-5,51,46,42,45,42,41,93,86,71,29.92,29.67,29.53,6,6,6,13,7,,0.00,6,Rain,241
2012-11-6,51,43,35,43,39,36,100,83,58,30.27,30.14,29.92,6,6,0,8,4,,0.00,5,Fog,281
2012-11-7,53,50,46,46,43,39,93,79,67,30.39,30.35,30.30,6,6,6,12,8,,0.00,8,,245
2012-11-8,50,47,44,45,41,39,93,78,71,30.33,30.19,30.12,6,6,5,7,3,,0.00,8,,237
2012-11-9,50,42,35,48,41,34,100,92,81,30.12,29.95,29.74,6,5,1,8,4,,0.00,7,Fog-Rain,125
2012-11-10,57,50,44,52,49,43,100,89,77,29.71,29.57,29.44,6,6,1,17,8,32,0.00,7,Rain,202
2012-11-11,50,46,41,45,42,39,100,90,76,30.18,29.91,29.65,6,6,4,8,3,,0.00,6,,227
2012-11-12,46,42,39,43,41,39,100,91,81,30.39,30.29,30.18,6,6,4,9,6,,0.00,8,,186
2012-11-13,46,44,42,46,44,41,100,95,93,30.45,30.41,30.39,6,4,0,9,6,,0.00,8,Fog-Rain,140
2012-11-14,41,38,35,41,38,34,100,96,93,30.39,30.30,30.24,5,3,1,8,5,,0.00,8,,77
2012-11-15,44,42,39,39,38,37,93,88,81,30.27,30.19,30.12,5,4,3,6,3,,0.00,8,,94
2012-11-16,42,40,37,39,38,36,100,94,87,30.12,30.04,29.92,6,3,0,9,5,,0.00,8,Fog,135
2012-11-17,50,44,39,48,46,39,100,98,93,29.92,29.84,29.80,6,2,0,9,6,,0.00,8,Fog,160
2012-11-18,50,48,46,48,46,45,100,94,87,30.01,29.92,29.80,6,5,1,9,4,,0.00,8,Rain,20
2012-11-19,55,50,44,52,47,43,100,91,82,30.01,29.97,29.95,6,5,4,9,5,,0.00,8,,134
2012-11-20,53,48,44,50,46,45,100,91,72,30.04,30.00,29.95,6,5,3,12,7,,0.00,7,,159
2012-11-21,53,48,42,50,43,39,100,88,72,30.15,29.95,29.86,6,6,5,16,10,,0.00,8,Rain,178
2012-11-22,48,42,37,45,41,37,100,94,87,30.21,30.14,30.04,6,5,0,15,6,,0.00,6,Fog,159
2012-11-23,50,46,42,48,45,41,94,90,81,30.04,29.99,29.95,6,6,4,12,8,,0.00,7,Rain,177
2012-11-24,59,50,44,48,46,43,94,88,67,30.04,29.91,29.68,6,6,6,20,5,,0.00,7,,129
2012-11-25,59,50,42,48,42,39,93,72,58,29.98,29.88,29.68,6,6,6,30,19,45,0.00,6,Rain,210
2012-11-26,55,48,42,48,42,37,94,76,58,29.83,29.66,29.59,6,6,6,22,10,33,0.00,7,,198
2012-11-27,48,45,42,43,41,39,100,85,71,29.68,29.62,29.59,6,6,4,15,9,,0.00,8,Rain,207
2012-11-28,46,44,41,43,41,39,100,89,76,29.74,29.72,29.68,6,6,4,13,6,,0.00,7,Rain,354
2012-11-29,44,40,35,41,37,32,93,84,76,29.80,29.77,29.74,6,6,6,15,11,,0.00,6,Rain,333
2012-11-30,41,36,30,37,34,28,100,95,87,29.95,29.85,29.80,6,4,0,4,2,,0.00,7,Fog,84